Weather in Stara Zagora

Bulgaria     42°25′33″N   25°38′04″E
temp.,
°C
wind,
m/s
gust,
m/s
humid.,
%
clouds,
%
prec.,
mm/h
press.,
hPa
HPBL,
m
17 april, sat
sat1700:00+7ne2259100 0.0 102148
03:00+7ne2460100 0.0 1020145
06:00+5ne2581100 0.5 1020248
09:00+6ne2686100 1.3 1020362
12:00+7e3681100 0.0 1019565
15:00+10ene4572100 0.0 1016986
18:00+9e5876100 0.0 1015604
21:00+7e4776100 0.0 1016478
18 april, sun
sun1800:00+6ene377698 0.0 1016425
03:00+6ne247593 0.0 1016228
06:00+6ene1472100 0.0 1015203
09:00+6ene3576100 0.0 1015374
12:00+8e2381100 0.0 1015511
15:00+12ese117365 0.0 1014730
18:00+13ese1172100 0.0 1014460
21:00+10ene1187100 0.0 101518
19 april, mon
mon1900:00+10nne2390100 0.1 101576
03:00+9n2291100 0.2 101541
06:00+9nne2394100 0.3 1013122
09:00+9ne1393100 0.3 1013245
12:00+9nne1395100 3.8 1012445
15:00+8nnw3788100 5.3 1011618
18:00+5nnw41091100 2.8 1010396
21:00+5nnw3892100 6.4 1010424
20 april, tue
tue2000:00+6nw2491100 0.0 1009190
03:00+6wnw2591100 0.1 1008341
06:00+6w249399 0.1 1009209
09:00+9w258110 0.1 1010450
12:00+13wsw245998 0.1 10111670
15:00+13ssw0162100 0.2 1012660
18:00+13s1168100 1.1 1012187
21:00+9wnw2290100 2.8 101429
21 april, wed
wed2100:00+8nw218893 0.5 101511
03:00+7nw1188100 0.9 101511
06:00+6nnw118849 0.3 101612
09:00+10nnw117415 0.3 1018323
12:00+13s236482 0.1 10181352
15:00+15n24576 1.0 10171389
18:00+15n23585 0.3 1017812
21:00+9nne11785 0.6 102011